Private Wetterstation Wechselburg
Wetterdaten: Sonntag, 16.06.2013
Datum Zeit Temp. +2m Bodentemp. Temp.+5cm Temp. Wind Windchill X Diff Temp. Feuchte +2m Feuchte +5cm Sonnenschein Luftdruck Regen Wind Richtung Richtung Sonnenschein UV Taupunkt Windchill Windben
16.06.2013 00:00 16,6 C 23,3 C 16,4 C 16,6 C 16,5 C 0,0 C 79 % 81 % 0 % 1013,7 hPa 0,0 l/m 0,8 km/h (0 Bft) S 180 0 min 0,0 UV-I 12,9 C 16,5 C 0,0 km/h (0 Bft)
16.06.2013 00:05 16,7 C 23,3 C 16,5 C 16,6 C 16,5 C 0,0 C 79 % 81 % 0 % 1013,7 hPa 0,0 l/m 1,0 km/h (0 Bft) S-SO 157 0 min 0,0 UV-I 13,0 C 16,5 C 2,1 km/h (1 Bft)
16.06.2013 00:10 16,8 C 23,3 C 16,5 C 16,8 C 16,7 C 0,0 C 77 % 80 % 0 % 1013,7 hPa 0,0 l/m 1,6 km/h (1 Bft) NW 315 0 min 0,0 UV-I 12,7 C 16,7 C 2,3 km/h (1 Bft)
16.06.2013 00:15 16,8 C 23,3 C 16,4 C 16,7 C 16,6 C 0,0 C 77 % 80 % 0 % 1013,9 hPa 0,0 l/m 1,4 km/h (1 Bft) S 180 0 min 0,0 UV-I 12,7 C 16,6 C 1,8 km/h (1 Bft)
16.06.2013 00:20 17,0 C 23,3 C 16,5 C 16,9 C 16,7 C 0,0 C 75 % 79 % 0 % 1013,9 hPa 0,0 l/m 2,1 km/h (1 Bft) SW 225 0 min 0,0 UV-I 12,5 C 16,7 C 8,5 km/h (2 Bft)
16.06.2013 00:25 17,0 C 23,3 C 16,5 C 16,9 C 16,8 C 0,0 C 74 % 79 % 0 % 1013,9 hPa 0,0 l/m 2,6 km/h (1 Bft) SW 225 0 min 0,0 UV-I 12,3 C 16,8 C 3,7 km/h (1 Bft)
16.06.2013 00:30 17,2 C 23,3 C 16,5 C 17,0 C 16,7 C 0,0 C 73 % 79 % 0 % 1013,9 hPa 0,0 l/m 2,3 km/h (1 Bft) S-SO 157 0 min 0,0 UV-I 12,3 C 16,7 C 0,0 km/h (0 Bft)
16.06.2013 00:35 17,1 C 23,3 C 16,4 C 16,9 C 16,6 C 0,0 C 72 % 78 % 0 % 1014,2 hPa 0,0 l/m 1,4 km/h (1 Bft) S 180 0 min 0,0 UV-I 12,0 C 16,6 C 0,0 km/h (0 Bft)
16.06.2013 00:41 17,0 C 23,3 C 16,3 C 16,7 C 16,2 C 0,0 C 72 % 78 % 0 % 1014,2 hPa 0,0 l/m 0,3 km/h (0 Bft) N 0 0 min 0,0 UV-I 11,9 C 16,2 C 0,0 km/h (0 Bft)
16.06.2013 00:57 16,7 C 23,4 C 15,8 C 16,3 C 15,4 C 0,0 C 73 % 79 % 0 % 1014,1 hPa 0,0 l/m 0,0 km/h (0 Bft) S 180 0 min 0,0 UV-I 11,8 C 15,4 C 0,0 km/h (0 Bft)
16.06.2013 00:58 16,7 C 23,4 C 15,8 C 16,3 C 15,4 C 0,0 C 73 % 79 % 0 % 1014,1 hPa 0,0 l/m 0,0 km/h (0 Bft) S 180 0 min 0,0 UV-I 11,8 C 15,4 C 0,0 km/h (0 Bft)
16.06.2013 01:00 16,4 C 23,3 C 15,8 C 16,0 C 15,2 C 0,0 C 74 % 79 % 0 % 1014,1 hPa 0,0 l/m 0,5 km/h (0 Bft) SW 225 0 min 0,0 UV-I 11,8 C 15,2 C 2,9 km/h (1 Bft)
16.06.2013 01:05 16,5 C 23,3 C 15,9 C 16,1 C 15,3 C 0,0 C 74 % 79 % 0 % 1014,1 hPa 0,0 l/m 1,1 km/h (1 Bft) W-NW 292 0 min 0,0 UV-I 11,8 C 15,3 C 3,2 km/h (1 Bft)
16.06.2013 01:10 16,5 C 23,3 C 15,8 C 16,1 C 15,4 C 0,0 C 74 % 79 % 0 % 1014,1 hPa 0,0 l/m 1,3 km/h (1 Bft) NW 315 0 min 0,0 UV-I 11,8 C 15,4 C 0,0 km/h (0 Bft)
16.06.2013 01:15 16,4 C 23,3 C 15,7 C 16,0 C 15,3 C 0,0 C 74 % 79 % 0 % 1014,4 hPa 0,0 l/m 1,3 km/h (1 Bft) SW 225 0 min 0,0 UV-I 11,8 C 15,3 C 3,2 km/h (1 Bft)
16.06.2013 01:20 16,3 C 23,3 C 15,7 C 16,0 C 15,3 C 0,0 C 74 % 79 % 0 % 1014,4 hPa 0,0 l/m 1,6 km/h (1 Bft) S-SW 202 0 min 0,0 UV-I 11,7 C 15,3 C 0,0 km/h (0 Bft)
16.06.2013 01:25 16,2 C 23,3 C 15,9 C 15,9 C 15,4 C 0,0 C 73 % 79 % 0 % 1014,4 hPa 0,0 l/m 1,9 km/h (1 Bft) S 180 0 min 0,0 UV-I 11,4 C 15,4 C 2,1 km/h (1 Bft)
16.06.2013 01:30 16,3 C 23,3 C 15,8 C 16,1 C 15,6 C 0,0 C 73 % 79 % 0 % 1014,4 hPa 0,0 l/m 2,1 km/h (1 Bft) S-SO 157 0 min 0,0 UV-I 11,4 C 15,6 C 4,2 km/h (1 Bft)
16.06.2013 01:35 16,3 C 23,3 C 15,8 C 16,1 C 15,6 C 0,0 C 73 % 79 % 0 % 1014,6 hPa 0,0 l/m 2,3 km/h (1 Bft) S 180 0 min 0,0 UV-I 11,4 C 15,6 C 3,5 km/h (1 Bft)
16.06.2013 01:40 16,3 C 23,3 C 15,7 C 16,1 C 15,6 C 0,0 C 73 % 79 % 0 % 1014,6 hPa 0,0 l/m 2,7 km/h (1 Bft) NW 315 0 min 0,0 UV-I 11,4 C 15,6 C 4,3 km/h (1 Bft)
16.06.2013 01:45 16,3 C 23,3 C 15,7 C 16,1 C 15,6 C 0,0 C 73 % 79 % 0 % 1014,6 hPa 0,0 l/m 3,4 km/h (1 Bft) S-SW 202 0 min 0,0 UV-I 11,4 C 15,6 C 3,9 km/h (1 Bft)
16.06.2013 01:50 16,2 C 23,3 C 15,6 C 16,0 C 15,5 C 0,0 C 73 % 79 % 0 % 1014,6 hPa 0,0 l/m 2,9 km/h (1 Bft) SW 225 0 min 0,0 UV-I 11,4 C 15,5 C 2,9 km/h (1 Bft)
16.06.2013 01:55 16,1 C 23,3 C 15,6 C 15,8 C 15,3 C 0,0 C 73 % 79 % 0 % 1014,6 hPa 0,0 l/m 1,9 km/h (1 Bft) S 180 0 min 0,0 UV-I 11,3 C 15,3 C 1,6 km/h (1 Bft)
16.06.2013 02:00 16,1 C 23,3 C 15,5 C 15,8 C 15,1 C 0,0 C 73 % 79 % 0 % 1014,6 hPa 0,0 l/m 1,8 km/h (1 Bft) W-SW 247 0 min 0,0 UV-I 11,3 C 15,1 C 2,4 km/h (1 Bft)
16.06.2013 02:05 15,9 C 23,2 C 15,5 C 15,6 C 15,0 C 0,0 C 74 % 79 % 0 % 1014,6 hPa 0,0 l/m 2,4 km/h (1 Bft) S 180 0 min 0,0 UV-I 11,3 C 15,0 C 2,9 km/h (1 Bft)
16.06.2013 02:10 15,7 C 23,2 C 15,2 C 15,4 C 14,7 C 0,0 C 74 % 80 % 0 % 1014,6 hPa 0,0 l/m 2,4 km/h (1 Bft) S 180 0 min 0,0 UV-I 11,1 C 14,7 C 2,4 km/h (1 Bft)
16.06.2013 02:15 15,6 C 23,2 C 15,3 C 15,3 C 14,6 C 0,0 C 75 % 80 % 0 % 1015,1 hPa 0,0 l/m 2,4 km/h (1 Bft) W-SW 247 0 min 0,0 UV-I 11,2 C 14,6 C 3,9 km/h (1 Bft)
16.06.2013 02:20 15,6 C 23,2 C 15,3 C 15,3 C 14,6 C 0,0 C 75 % 80 % 0 % 1015,1 hPa 0,0 l/m 2,9 km/h (1 Bft) SW 225 0 min 0,0 UV-I 11,2 C 14,6 C 10,8 km/h (2 Bft)
16.06.2013 02:25 15,5 C 23,2 C 15,3 C 15,2 C 14,7 C 0,0 C 75 % 80 % 0 % 1015,1 hPa 0,0 l/m 3,9 km/h (1 Bft) W-SW 247 0 min 0,0 UV-I 11,1 C 14,7 C 4,8 km/h (1 Bft)
16.06.2013 02:30 15,5 C 23,2 C 15,2 C 15,2 C 14,7 C 0,0 C 74 % 79 % 0 % 1015,1 hPa 0,0 l/m 3,9 km/h (1 Bft) S 180 0 min 0,0 UV-I 10,9 C 14,7 C 2,7 km/h (1 Bft)
16.06.2013 02:35 15,5 C 23,2 C 15,1 C 15,2 C 14,5 C 0,0 C 74 % 80 % 0 % 1015,1 hPa 0,0 l/m 3,2 km/h (1 Bft) SW 225 0 min 0,0 UV-I 10,9 C 14,5 C 3,2 km/h (1 Bft)
16.06.2013 02:40 15,2 C 23,2 C 14,9 C 14,9 C 14,4 C 0,0 C 75 % 80 % 0 % 1015,1 hPa 0,0 l/m 3,1 km/h (1 Bft) S 180 0 min 0,0 UV-I 10,8 C 14,4 C 3,9 km/h (1 Bft)
16.06.2013 02:45 15,2 C 23,2 C 14,8 C 14,9 C 14,3 C 0,0 C 75 % 80 % 0 % 1015,1 hPa 0,0 l/m 3,2 km/h (1 Bft) S 180 0 min 0,0 UV-I 10,8 C 14,3 C 5,1 km/h (1 Bft)
16.06.2013 02:50 15,0 C 23,2 C 14,7 C 14,7 C 14,1 C 0,0 C 75 % 80 % 0 % 1015,1 hPa 0,0 l/m 2,6 km/h (1 Bft) S-SO 157 0 min 0,0 UV-I 10,6 C 14,1 C 3,9 km/h (1 Bft)
16.06.2013 02:55 14,9 C 23,2 C 14,7 C 14,6 C 13,9 C 0,0 C 75 % 80 % 0 % 1015,2 hPa 0,0 l/m 1,4 km/h (1 Bft) W-SW 247 0 min 0,0 UV-I 10,5 C 13,9 C 1,8 km/h (1 Bft)
16.06.2013 03:00 14,8 C 23,2 C 14,5 C 14,4 C 13,6 C 0,0 C 75 % 80 % 0 % 1015,2 hPa 0,0 l/m 0,6 km/h (0 Bft) W-SW 247 0 min 0,0 UV-I 10,4 C 13,6 C 2,4 km/h (1 Bft)
16.06.2013 03:05 14,7 C 23,2 C 14,4 C 14,3 C 13,5 C 0,0 C 76 % 80 % 0 % 1015,2 hPa 0,0 l/m 0,5 km/h (0 Bft) W 270 0 min 0,0 UV-I 10,5 C 13,5 C 0,0 km/h (0 Bft)
16.06.2013 03:10 14,5 C 23,2 C 14,2 C 14,1 C 13,2 C 0,0 C 76 % 80 % 0 % 1015,2 hPa 0,0 l/m 0,2 km/h (0 Bft) N-NO 22 0 min 0,0 UV-I 10,3 C 13,2 C 0,0 km/h (0 Bft)
16.06.2013 03:15 14,5 C 23,2 C 14,0 C 14,0 C 13,1 C 0,0 C 77 % 80 % 0 % 1015,1 hPa 0,0 l/m 0,2 km/h (0 Bft) O-NO 67 0 min 0,0 UV-I 10,5 C 13,1 C 0,0 km/h (0 Bft)
16.06.2013 03:20 14,3 C 23,3 C 13,9 C 13,8 C 12,9 C 0,0 C 77 % 80 % 0 % 1015,1 hPa 0,0 l/m 0,0 km/h (0 Bft) O-NO 67 0 min 0,0 UV-I 10,3 C 12,9 C 0,0 km/h (0 Bft)
16.06.2013 03:25 14,1 C 23,3 C 13,7 C 13,7 C 12,8 C 0,0 C 77 % 80 % 0 % 1015,1 hPa 0,0 l/m 0,0 km/h (0 Bft) N-NO 22 0 min 0,0 UV-I 10,1 C 12,8 C 0,0 km/h (0 Bft)
16.06.2013 03:30 13,9 C 23,3 C 13,7 C 13,5 C 12,6 C 0,0 C 78 % 81 % 0 % 1015,1 hPa 0,0 l/m 0,0 km/h (0 Bft) O-NO 67 0 min 0,0 UV-I 10,1 C 12,6 C 0,0 km/h (0 Bft)
16.06.2013 03:35 13,8 C 23,3 C 13,6 C 13,4 C 12,5 C 0,0 C 78 % 81 % 0 % 1015,2 hPa 0,0 l/m 0,0 km/h (0 Bft) O-NO 67 0 min 0,0 UV-I 10,0 C 12,5 C 0,0 km/h (0 Bft)
16.06.2013 03:40 13,7 C 23,3 C 13,3 C 13,3 C 12,4 C 0,0 C 79 % 81 % 0 % 1015,2 hPa 0,0 l/m 0,0 km/h (0 Bft) N 360 0 min 0,0 UV-I 10,1 C 12,4 C 0,0 km/h (0 Bft)
16.06.2013 03:45 13,6 C 23,3 C 13,3 C 13,2 C 12,3 C 0,0 C 79 % 81 % 0 % 1015,2 hPa 0,0 l/m 0,0 km/h (0 Bft) O 90 0 min 0,0 UV-I 10,0 C 12,3 C 0,0 km/h (0 Bft)
16.06.2013 03:50 13,5 C 23,3 C 13,2 C 13,1 C 12,2 C 0,0 C 79 % 81 % 0 % 1015,2 hPa 0,0 l/m 0,0 km/h (0 Bft) O-NO 67 0 min 0,0 UV-I 9,9 C 12,2 C 0,0 km/h (0 Bft)
16.06.2013 03:55 13,5 C 23,3 C 13,1 C 13,0 C 12,1 C 0,0 C 79 % 81 % 0 % 1015,2 hPa 0,0 l/m 0,0 km/h (0 Bft) O 90 0 min 0,0 UV-I 9,9 C 12,1 C 0,0 km/h (0 Bft)
16.06.2013 04:00 13,3 C 23,3 C 13,1 C 12,9 C 12,1 C 0,0 C 80 % 81 % 0 % 1015,2 hPa 0,0 l/m 0,0 km/h (0 Bft) O-NO 67 0 min 0,0 UV-I 9,9 C 12,1 C 0,0 km/h (0 Bft)
16.06.2013 04:05 13,2 C 23,3 C 13,0 C 12,8 C 12,0 C 0,0 C 80 % 82 % 0 % 1015,2 hPa 0,0 l/m 0,0 km/h (0 Bft) O-NO 67 0 min 0,0 UV-I 9,8 C 12,0 C 0,0 km/h (0 Bft)
16.06.2013 04:10 13,1 C 23,3 C 12,8 C 12,6 C 11,7 C 0,0 C 81 % 81 % 0 % 1015,2 hPa 0,0 l/m 0,0 km/h (0 Bft) N-NO 22 0 min 0,0 UV-I 9,9 C 11,7 C 0,0 km/h (0 Bft)
16.06.2013 04:15 13,1 C 23,3 C 12,8 C 12,6 C 11,6 C 0,0 C 81 % 81 % 0 % 1015,8 hPa 0,0 l/m 0,0 km/h (0 Bft) N 360 0 min 0,0 UV-I 9,9 C 11,6 C 0,0 km/h (0 Bft)
16.06.2013 04:20 12,8 C 23,3 C 12,8 C 12,3 C 11,4 C 0,0 C 81 % 81 % 0 % 1015,8 hPa 0,0 l/m 0,0 km/h (0 Bft) NO 45 0 min 0,0 UV-I 9,6 C 11,4 C 0,0 km/h (0 Bft)
16.06.2013 04:25 12,7 C 23,3 C 12,7 C 12,3 C 11,4 C 0,0 C 81 % 81 % 0 % 1015,8 hPa 0,0 l/m 0,0 km/h (0 Bft) NO 45 0 min 0,0 UV-I 9,5 C 11,4 C 0,0 km/h (0 Bft)
16.06.2013 04:30 12,7 C 23,2 C 12,7 C 12,2 C 11,3 C 0,0 C 82 % 82 % 0 % 1015,8 hPa 0,0 l/m 0,0 km/h (0 Bft) N-NW 337 0 min 0,0 UV-I 9,7 C 11,3 C 0,0 km/h (0 Bft)
16.06.2013 04:35 12,5 C 23,2 C 12,5 C 12,1 C 11,2 C 0,0 C 82 % 82 % 0 % 1015,4 hPa 0,0 l/m 0,0 km/h (0 Bft) N-NO 22 0 min 0,0 UV-I 9,5 C 11,2 C 0,0 km/h (0 Bft)
16.06.2013 04:40 12,5 C 23,2 C 12,7 C 12,0 C 11,1 C 0,0 C 82 % 82 % 0 % 1015,4 hPa 0,0 l/m 0,0 km/h (0 Bft) O-NO 67 0 min 0,0 UV-I 9,5 C 11,1 C 0,0 km/h (0 Bft)
16.06.2013 04:45 12,3 C 23,2 C 12,5 C 11,9 C 11,1 C 0,0 C 82 % 82 % 0 % 1015,4 hPa 0,0 l/m 0,0 km/h (0 Bft) NO 45 0 min 0,0 UV-I 9,3 C 11,1 C 0,0 km/h (0 Bft)
16.06.2013 04:50 12,3 C 23,3 C 12,3 C 11,9 C 11,2 C 0,0 C 83 % 82 % 0 % 1015,4 hPa 0,0 l/m 0,0 km/h (0 Bft) O-NO 67 0 min 0,0 UV-I 9,5 C 11,2 C 0,0 km/h (0 Bft)
16.06.2013 04:55 12,2 C 23,3 C 12,2 C 11,9 C 11,2 C 0,0 C 83 % 82 % 0 % 1015,7 hPa 0,0 l/m 0,0 km/h (0 Bft) O-NO 67 0 min 0,0 UV-I 9,4 C 11,2 C 0,0 km/h (0 Bft)
16.06.2013 05:00 12,1 C 23,2 C 12,2 C 11,8 C 11,1 C 0,0 C 83 % 82 % 0 % 1015,7 hPa 0,0 l/m 0,0 km/h (0 Bft) O-NO 67 0 min 0,0 UV-I 9,3 C 11,1 C 0,0 km/h (0 Bft)
16.06.2013 05:05 12,0 C 23,3 C 12,3 C 11,7 C 11,1 C 0,0 C 83 % 82 % 0 % 1015,7 hPa 0,0 l/m 0,0 km/h (0 Bft) NO 45 0 min 0,0 UV-I 9,2 C 11,1 C 0,0 km/h (0 Bft)
16.06.2013 05:10 11,9 C 23,2 C 12,2 C 11,6 C 11,0 C 0,0 C 83 % 82 % 0 % 1015,7 hPa 0,0 l/m 0,0 km/h (0 Bft) N-NW 337 0 min 0,0 UV-I 9,1 C 11,0 C 0,0 km/h (0 Bft)
16.06.2013 05:15 11,9 C 23,2 C 12,3 C 11,6 C 10,9 C 0,0 C 83 % 82 % 0 % 1015,8 hPa 0,0 l/m 0,0 km/h (0 Bft) W 270 0 min 0,0 UV-I 9,1 C 10,9 C 0,0 km/h (0 Bft)
16.06.2013 05:20 11,8 C 23,2 C 12,3 C 11,5 C 10,9 C 0,0 C 83 % 82 % 0 % 1015,8 hPa 0,0 l/m 0,0 km/h (0 Bft) W-SW 247 0 min 0,0 UV-I 9,0 C 10,9 C 0,0 km/h (0 Bft)
16.06.2013 05:25 11,7 C 23,1 C 12,3 C 11,5 C 11,0 C 0,0 C 84 % 83 % 0 % 1015,8 hPa 0,0 l/m 0,0 km/h (0 Bft) W-NW 292 0 min 0,0 UV-I 9,1 C 11,0 C 0,0 km/h (0 Bft)
16.06.2013 05:30 11,6 C 23,1 C 12,3 C 11,4 C 11,1 C 0,0 C 84 % 82 % 0 % 1015,8 hPa 0,0 l/m 0,0 km/h (0 Bft) NW 315 0 min 0,0 UV-I 9,0 C 11,1 C 0,0 km/h (0 Bft)
16.06.2013 05:35 11,5 C 23,1 C 12,2 C 11,4 C 11,2 C 0,0 C 84 % 82 % 0 % 1015,8 hPa 0,0 l/m 0,0 km/h (0 Bft) O-NO 67 0 min 0,0 UV-I 8,9 C 11,2 C 0,0 km/h (0 Bft)
16.06.2013 05:40 11,5 C 23,1 C 12,3 C 11,4 C 11,3 C 0,0 C 84 % 82 % 0 % 1015,8 hPa 0,0 l/m 0,0 km/h (0 Bft) O 90 0 min 0,0 UV-I 8,9 C 11,3 C 0,0 km/h (0 Bft)
16.06.2013 05:45 11,5 C 23,2 C 12,3 C 11,5 C 11,4 C 0,0 C 84 % 82 % 0 % 1015,8 hPa 0,0 l/m 0,0 km/h (0 Bft) O-NO 67 0 min 0,0 UV-I 8,9 C 11,4 C 0,0 km/h (0 Bft)
16.06.2013 05:50 11,6 C 23,1 C 12,4 C 11,7 C 11,7 C 0,1 C 84 % 82 % 3 % 1015,8 hPa 0,0 l/m 0,2 km/h (0 Bft) O-NO 67 0 min 0,0 UV-I 9,0 C 11,7 C 1,8 km/h (1 Bft)
16.06.2013 05:55 11,6 C 23,1 C 12,5 C 11,8 C 11,8 C 0,2 C 84 % 82 % 5 % 1015,8 hPa 0,0 l/m 0,3 km/h (0 Bft) O-NO 67 0 min 0,0 UV-I 9,0 C 11,8 C 2,1 km/h (1 Bft)
16.06.2013 06:00 11,9 C 23,1 C 12,6 C 12,2 C 12,2 C 0,3 C 84 % 82 % 8 % 1015,8 hPa 0,0 l/m 0,6 km/h (0 Bft) O 90 0 min 0,0 UV-I 9,3 C 12,2 C 1,6 km/h (1 Bft)
16.06.2013 06:05 11,8 C 23,1 C 12,6 C 12,3 C 12,3 C 0,5 C 84 % 82 % 13 % 1015,8 hPa 0,0 l/m 0,8 km/h (0 Bft) O-NO 67 0 min 0,0 UV-I 9,2 C 12,3 C 1,6 km/h (1 Bft)
16.06.2013 06:10 11,9 C 23,1 C 12,8 C 12,6 C 12,6 C 0,7 C 84 % 82 % 18 % 1015,8 hPa 0,0 l/m 1,3 km/h (1 Bft) O-NO 67 0 min 0,0 UV-I 9,3 C 12,6 C 0,0 km/h (0 Bft)
16.06.2013 06:15 12,0 C 23,1 C 12,9 C 12,7 C 12,7 C 0,7 C 84 % 82 % 18 % 1016,1 hPa 0,0 l/m 0,8 km/h (0 Bft) O-NO 67 0 min 0,0 UV-I 9,4 C 12,7 C 0,0 km/h (0 Bft)
16.06.2013 06:20 12,1 C 23,0 C 13,1 C 13,0 C 13,0 C 0,9 C 84 % 82 % 24 % 1016,1 hPa 0,0 l/m 0,2 km/h (0 Bft) NO 45 0 min 0,1 UV-I 9,5 C 13,0 C 0,0 km/h (0 Bft)
16.06.2013 06:25 12,3 C 23,0 C 13,1 C 13,2 C 13,2 C 0,9 C 84 % 82 % 24 % 1016,1 hPa 0,0 l/m 0,0 km/h (0 Bft) NO 45 0 min 0,1 UV-I 9,7 C 13,2 C 0,0 km/h (0 Bft)
16.06.2013 06:30 12,4 C 23,0 C 13,2 C 13,4 C 13,4 C 1,0 C 84 % 82 % 26 % 1016,1 hPa 0,0 l/m 0,0 km/h (0 Bft) O-NO 67 0 min 0,1 UV-I 9,8 C 13,4 C 0,0 km/h (0 Bft)
16.06.2013 06:35 12,4 C 23,0 C 13,3 C 13,4 C 13,4 C 1,0 C 84 % 82 % 26 % 1016,1 hPa 0,0 l/m 0,0 km/h (0 Bft) O-NO 67 0 min 0,1 UV-I 9,8 C 13,4 C 0,0 km/h (0 Bft)
16.06.2013 06:41 12,7 C 23,0 C 13,3 C 13,5 C 13,5 C 0,8 C 83 % 82 % 21 % 1016,1 hPa 0,0 l/m 0,0 km/h (0 Bft) N 0 0 min 0,2 UV-I 9,9 C 13,5 C 0,0 km/h (0 Bft)
16.06.2013 07:00 13,3 C 22,9 C 14,2 C 16,9 C 16,9 C 3,6 C 82 % 82 % 95 % 1016,1 hPa 0,0 l/m 0,2 km/h (0 Bft) N-NO 22 19 min 0,4 UV-I 10,3 C 16,9 C 0,0 km/h (0 Bft)
16.06.2013 07:05 13,5 C 22,8 C 14,3 C 17,3 C 17,3 C 3,8 C 82 % 81 % 100 % 1016,1 hPa 0,0 l/m 0,0 km/h (0 Bft) O-NO 67 5 min 0,4 UV-I 10,5 C 17,3 C 0,0 km/h (0 Bft)
16.06.2013 07:10 13,8 C 22,8 C 14,4 C 18,3 C 18,3 C 4,5 C 82 % 81 % 100 % 1016,1 hPa 0,0 l/m 0,0 km/h (0 Bft) S-SO 157 5 min 0,5 UV-I 10,8 C 18,3 C 0,0 km/h (0 Bft)
16.06.2013 07:15 14,0 C 22,8 C 14,6 C 18,6 C 18,6 C 4,6 C 82 % 81 % 100 % 1016,4 hPa 0,0 l/m 0,0 km/h (0 Bft) O-SO 112 5 min 0,5 UV-I 11,0 C 18,6 C 0,0 km/h (0 Bft)
16.06.2013 07:20 14,4 C 22,8 C 14,9 C 20,2 C 20,2 C 5,8 C 82 % 81 % 100 % 1016,4 hPa 0,0 l/m 0,0 km/h (0 Bft) S-SW 202 5 min 0,2 UV-I 11,4 C 20,2 C 0,0 km/h (0 Bft)
16.06.2013 07:25 14,6 C 22,8 C 15,0 C 21,6 C 21,6 C 7,0 C 82 % 80 % 100 % 1016,4 hPa 0,0 l/m 0,0 km/h (0 Bft) SW 225 5 min 0,2 UV-I 11,6 C 21,6 C 0,0 km/h (0 Bft)
16.06.2013 07:30 15,3 C 22,7 C 15,2 C 22,9 C 22,9 C 7,6 C 81 % 80 % 100 % 1016,4 hPa 0,0 l/m 0,0 km/h (0 Bft) SW 225 5 min 0,0 UV-I 12,1 C 22,9 C 0,0 km/h (0 Bft)
16.06.2013 07:35 15,5 C 22,7 C 15,2 C 23,0 C 23,0 C 7,5 C 80 % 80 % 100 % 1016,4 hPa 0,0 l/m 0,0 km/h (0 Bft) SW 225 5 min 0,0 UV-I 12,1 C 23,0 C 0,0 km/h (0 Bft)
16.06.2013 07:40 16,1 C 22,7 C 15,2 C 23,0 C 23,0 C 6,9 C 79 % 80 % 100 % 1016,4 hPa 0,0 l/m 0,2 km/h (0 Bft) S-SO 157 5 min 0,0 UV-I 12,5 C 23,0 C 0,0 km/h (0 Bft)
16.06.2013 07:45 16,3 C 22,7 C 15,4 C 23,2 C 23,2 C 6,9 C 78 % 80 % 100 % 1016,4 hPa 0,0 l/m 0,3 km/h (0 Bft) S-SW 202 5 min 0,0 UV-I 12,5 C 23,2 C 2,4 km/h (1 Bft)
16.06.2013 07:50 16,7 C 22,7 C 15,6 C 23,2 C 23,2 C 6,5 C 76 % 79 % 100 % 1016,4 hPa 0,0 l/m 0,6 km/h (0 Bft) SW 225 5 min 0,0 UV-I 12,4 C 23,2 C 0,0 km/h (0 Bft)
16.06.2013 07:55 16,8 C 22,7 C 15,7 C 23,6 C 23,6 C 6,8 C 75 % 79 % 100 % 1016,6 hPa 0,0 l/m 1,1 km/h (1 Bft) S 180 5 min 0,0 UV-I 12,3 C 23,6 C 3,1 km/h (1 Bft)
16.06.2013 08:00 17,1 C 22,7 C 15,9 C 24,6 C 24,6 C 7,5 C 75 % 78 % 100 % 1016,6 hPa 0,0 l/m 1,4 km/h (1 Bft) S-SO 157 5 min 0,0 UV-I 12,6 C 24,6 C 2,3 km/h (1 Bft)
16.06.2013 08:05 17,3 C 22,7 C 16,0 C 25,1 C 25,1 C 7,8 C 74 % 78 % 100 % 1016,6 hPa 0,0 l/m 1,6 km/h (1 Bft) O-SO 112 5 min 0,0 UV-I 12,6 C 25,1 C 0,0 km/h (0 Bft)
16.06.2013 08:10 17,6 C 22,7 C 16,0 C 25,0 C 25,0 C 7,4 C 72 % 78 % 100 % 1016,6 hPa 0,0 l/m 2,3 km/h (1 Bft) W-SW 247 5 min 0,0 UV-I 12,5 C 25,0 C 11,4 km/h (2 Bft)
16.06.2013 08:15 17,8 C 22,7 C 16,0 C 25,0 C 25,0 C 7,2 C 72 % 78 % 100 % 1016,6 hPa 0,0 l/m 2,6 km/h (1 Bft) SW 225 5 min 0,0 UV-I 12,7 C 25,0 C 3,1 km/h (1 Bft)
16.06.2013 08:20 18,0 C 22,7 C 16,2 C 25,2 C 25,2 C 7,2 C 70 % 78 % 100 % 1016,6 hPa 0,0 l/m 2,4 km/h (1 Bft) NW 315 5 min 0,0 UV-I 12,4 C 25,2 C 3,9 km/h (1 Bft)
16.06.2013 08:25 18,0 C 22,7 C 16,4 C 24,7 C 24,7 C 6,7 C 69 % 78 % 100 % 1016,6 hPa 0,0 l/m 3,2 km/h (1 Bft) S-SW 202 5 min 0,0 UV-I 12,2 C 24,7 C 3,2 km/h (1 Bft)
16.06.2013 08:30 18,1 C 22,7 C 16,5 C 24,4 C 24,4 C 6,3 C 68 % 77 % 100 % 1016,6 hPa 0,0 l/m 4,2 km/h (1 Bft) S 180 5 min 0,0 UV-I 12,1 C 24,4 C 12,1 km/h (2 Bft)
16.06.2013 08:35 18,1 C 22,7 C 16,5 C 23,9 C 23,9 C 5,8 C 68 % 77 % 100 % 1016,6 hPa 0,0 l/m 4,5 km/h (1 Bft) S 180 5 min 0,0 UV-I 12,1 C 23,9 C 5,8 km/h (2 Bft)
16.06.2013 08:40 18,0 C 22,7 C 16,5 C 24,0 C 24,0 C 6,0 C 68 % 77 % 100 % 1016,6 hPa 0,0 l/m 3,7 km/h (1 Bft) S 180 5 min 0,0 UV-I 12,0 C 24,0 C 0,0 km/h (0 Bft)
16.06.2013 08:45 18,1 C 22,7 C 16,4 C 23,9 C 23,9 C 5,8 C 69 % 77 % 100 % 1016,6 hPa 0,0 l/m 2,6 km/h (1 Bft) S-SO 157 5 min 0,0 UV-I 12,3 C 23,9 C 5,3 km/h (1 Bft)
16.06.2013 08:50 18,0 C 22,7 C 16,5 C 23,1 C 23,1 C 5,1 C 67 % 77 % 100 % 1016,6 hPa 0,0 l/m 3,4 km/h (1 Bft) W 270 5 min 0,0 UV-I 11,8 C 23,1 C 6,0 km/h (2 Bft)
16.06.2013 08:55 18,1 C 22,7 C 16,5 C 23,6 C 23,6 C 5,5 C 68 % 76 % 100 % 1016,6 hPa 0,0 l/m 3,9 km/h (1 Bft) W-SW 247 5 min 0,0 UV-I 12,1 C 23,6 C 4,8 km/h (1 Bft)
16.06.2013 09:00 18,3 C 22,7 C 16,6 C 24,0 C 24,0 C 5,7 C 67 % 75 % 100 % 1016,6 hPa 0,0 l/m 3,1 km/h (1 Bft) W-SW 247 5 min 0,0 UV-I 12,1 C 24,0 C 3,9 km/h (1 Bft)
16.06.2013 09:05 18,3 C 22,7 C 16,6 C 23,2 C 23,2 C 4,9 C 68 % 76 % 100 % 1016,6 hPa 0,0 l/m 2,7 km/h (1 Bft) W-SW 247 5 min 0,0 UV-I 12,3 C 23,2 C 2,9 km/h (1 Bft)
16.06.2013 09:10 18,3 C 22,7 C 16,7 C 21,9 C 21,9 C 3,6 C 67 % 77 % 95 % 1016,6 hPa 0,0 l/m 1,8 km/h (1 Bft) O-SO 112 5 min 0,0 UV-I 12,1 C 21,9 C 1,9 km/h (1 Bft)
16.06.2013 09:15 18,3 C 22,7 C 16,7 C 22,0 C 22,0 C 3,7 C 67 % 75 % 97 % 1016,4 hPa 0,0 l/m 1,6 km/h (1 Bft) W-SW 247 5 min 0,0 UV-I 12,1 C 22,0 C 7,6 km/h (2 Bft)
16.06.2013 09:20 18,3 C 22,7 C 16,8 C 23,5 C 23,5 C 5,2 C 68 % 76 % 100 % 1016,4 hPa 0,0 l/m 2,9 km/h (1 Bft) W-SW 247 5 min 0,0 UV-I 12,3 C 23,5 C 10,0 km/h (2 Bft)
16.06.2013 09:25 18,4 C 22,6 C 16,8 C 24,2 C 24,2 C 5,8 C 67 % 76 % 100 % 1016,4 hPa 0,0 l/m 3,9 km/h (1 Bft) NW 315 5 min 0,0 UV-I 12,2 C 24,2 C 0,0 km/h (0 Bft)
16.06.2013 09:30 18,5 C 22,6 C 16,9 C 24,8 C 24,8 C 6,3 C 67 % 77 % 100 % 1016,4 hPa 0,0 l/m 3,4 km/h (1 Bft) S 180 5 min 0,0 UV-I 12,3 C 24,8 C 5,5 km/h (1 Bft)
16.06.2013 09:35 18,7 C 22,6 C 17,0 C 25,3 C 25,3 C 6,6 C 67 % 76 % 100 % 1017,0 hPa 0,0 l/m 2,4 km/h (1 Bft) SO 135 5 min 0,0 UV-I 12,4 C 25,3 C 5,1 km/h (1 Bft)
16.06.2013 09:40 18,5 C 22,6 C 17,1 C 25,2 C 25,2 C 6,7 C 66 % 75 % 100 % 1017,0 hPa 0,0 l/m 3,7 km/h (1 Bft) W-SW 247 5 min 0,0 UV-I 12,0 C 25,2 C 3,7 km/h (1 Bft)
16.06.2013 09:45 18,5 C 22,6 C 17,1 C 24,9 C 24,9 C 6,4 C 66 % 75 % 100 % 1017,0 hPa 0,0 l/m 4,5 km/h (1 Bft) W 270 5 min 0,0 UV-I 12,0 C 24,9 C 6,4 km/h (2 Bft)
16.06.2013 09:50 18,4 C 22,6 C 17,2 C 24,7 C 24,7 C 6,3 C 65 % 74 % 100 % 1017,0 hPa 0,0 l/m 5,8 km/h (2 Bft) SW 225 5 min 0,0 UV-I 11,7 C 24,7 C 13,7 km/h (3 Bft)
16.06.2013 09:55 18,4 C 22,6 C 17,3 C 24,6 C 24,6 C 6,2 C 65 % 74 % 100 % 1016,4 hPa 0,0 l/m 6,3 km/h (2 Bft) S-SW 202 5 min 0,0 UV-I 11,7 C 24,6 C 8,5 km/h (2 Bft)
16.06.2013 10:00 18,6 C 22,6 C 17,5 C 24,5 C 24,5 C 5,9 C 66 % 75 % 100 % 1016,4 hPa 0,0 l/m 4,0 km/h (1 Bft) S 180 5 min 0,0 UV-I 12,1 C 24,5 C 5,3 km/h (1 Bft)
16.06.2013 10:05 18,7 C 22,6 C 17,7 C 25,1 C 25,1 C 6,4 C 66 % 74 % 100 % 1016,4 hPa 0,0 l/m 3,5 km/h (1 Bft) O-SO 112 5 min 0,0 UV-I 12,2 C 25,1 C 3,4 km/h (1 Bft)
16.06.2013 10:10 18,8 C 22,6 C 17,8 C 25,3 C 25,3 C 6,5 C 65 % 74 % 100 % 1016,4 hPa 0,0 l/m 5,3 km/h (1 Bft) W 270 5 min 0,0 UV-I 12,1 C 25,3 C 6,3 km/h (2 Bft)
16.06.2013 10:15 18,7 C 22,6 C 17,9 C 25,0 C 25,0 C 6,3 C 64 % 72 % 100 % 1016,2 hPa 0,0 l/m 6,3 km/h (2 Bft) S-SW 202 5 min 0,0 UV-I 11,7 C 25,0 C 3,5 km/h (1 Bft)
16.06.2013 10:20 18,8 C 22,6 C 18,1 C 24,0 C 24,0 C 5,2 C 64 % 70 % 100 % 1016,2 hPa 0,0 l/m 4,7 km/h (1 Bft) SO 135 5 min 0,0 UV-I 11,8 C 24,0 C 5,8 km/h (2 Bft)
16.06.2013 10:25 18,8 C 22,6 C 18,0 C 23,7 C 23,7 C 4,9 C 64 % 71 % 100 % 1016,2 hPa 0,0 l/m 4,2 km/h (1 Bft) S-SW 202 5 min 0,0 UV-I 11,8 C 23,7 C 5,1 km/h (1 Bft)
16.06.2013 10:30 18,9 C 22,6 C 18,2 C 23,9 C 23,9 C 5,0 C 62 % 71 % 100 % 1016,2 hPa 0,0 l/m 6,9 km/h (2 Bft) NW 315 5 min 0,0 UV-I 11,5 C 23,9 C 16,1 km/h (3 Bft)
16.06.2013 10:35 19,1 C 22,6 C 18,3 C 23,9 C 23,9 C 4,8 C 63 % 71 % 100 % 1016,4 hPa 0,0 l/m 6,4 km/h (2 Bft) S 180 5 min 0,0 UV-I 11,9 C 23,9 C 4,3 km/h (1 Bft)
16.06.2013 10:40 19,2 C 22,6 C 18,4 C 24,0 C 24,0 C 4,8 C 62 % 71 % 100 % 1016,4 hPa 0,0 l/m 5,5 km/h (1 Bft) S-SW 202 5 min 0,0 UV-I 11,7 C 24,0 C 7,6 km/h (2 Bft)
16.06.2013 10:45 19,3 C 22,6 C 18,3 C 23,8 C 23,8 C 4,5 C 62 % 71 % 100 % 1016,4 hPa 0,0 l/m 5,3 km/h (1 Bft) O-SO 112 5 min 0,0 UV-I 11,8 C 23,8 C 4,5 km/h (1 Bft)
16.06.2013 10:50 19,5 C 22,6 C 18,7 C 24,4 C 24,4 C 4,9 C 63 % 70 % 100 % 1016,4 hPa 0,0 l/m 4,5 km/h (1 Bft) W-NW 292 5 min 0,0 UV-I 12,3 C 24,4 C 1,9 km/h (1 Bft)
16.06.2013 10:55 19,8 C 22,7 C 18,8 C 25,0 C 25,0 C 5,2 C 62 % 68 % 100 % 1016,4 hPa 0,0 l/m 2,9 km/h (1 Bft) N-NO 22 5 min 0,0 UV-I 12,3 C 25,0 C 0,0 km/h (0 Bft)
16.06.2013 11:00 20,1 C 22,7 C 18,8 C 24,9 C 24,9 C 4,8 C 62 % 71 % 100 % 1016,4 hPa 0,0 l/m 2,9 km/h (1 Bft) NO 45 5 min 0,0 UV-I 12,6 C 24,9 C 1,9 km/h (1 Bft)
16.06.2013 11:05 20,1 C 22,7 C 18,8 C 24,3 C 24,3 C 4,2 C 62 % 69 % 100 % 1016,4 hPa 0,0 l/m 3,2 km/h (1 Bft) SO 135 5 min 0,0 UV-I 12,6 C 24,3 C 3,1 km/h (1 Bft)
16.06.2013 11:10 20,0 C 22,7 C 18,9 C 23,7 C 23,7 C 3,7 C 60 % 69 % 97 % 1016,4 hPa 0,0 l/m 3,4 km/h (1 Bft) W 270 5 min 0,0 UV-I 12,0 C 23,7 C 6,0 km/h (2 Bft)
16.06.2013 11:15 20,0 C 22,7 C 19,0 C 23,7 C 23,7 C 3,7 C 60 % 70 % 97 % 1016,2 hPa 0,0 l/m 4,2 km/h (1 Bft) SO 135 5 min 0,0 UV-I 12,0 C 23,7 C 3,9 km/h (1 Bft)
16.06.2013 11:20 20,1 C 22,7 C 19,0 C 23,6 C 23,6 C 3,5 C 60 % 71 % 92 % 1016,2 hPa 0,0 l/m 4,8 km/h (1 Bft) S 180 5 min 0,0 UV-I 12,1 C 23,6 C 9,7 km/h (2 Bft)
16.06.2013 11:25 20,0 C 22,7 C 19,1 C 23,6 C 23,6 C 3,6 C 61 % 70 % 95 % 1016,2 hPa 0,0 l/m 4,7 km/h (1 Bft) S-SW 202 5 min 0,0 UV-I 12,2 C 23,6 C 2,1 km/h (1 Bft)
16.06.2013 11:30 20,0 C 22,7 C 19,2 C 24,1 C 24,1 C 4,1 C 60 % 70 % 100 % 1016,2 hPa 0,0 l/m 5,5 km/h (1 Bft) S 180 5 min 0,0 UV-I 12,0 C 24,1 C 11,7 km/h (2 Bft)
16.06.2013 11:35 20,0 C 22,7 C 19,2 C 24,0 C 24,0 C 4,0 C 61 % 70 % 100 % 1016,2 hPa 0,0 l/m 5,3 km/h (1 Bft) SO 135 5 min 0,0 UV-I 12,2 C 24,0 C 2,7 km/h (1 Bft)
16.06.2013 11:40 20,2 C 22,7 C 19,4 C 24,2 C 24,2 C 4,0 C 60 % 69 % 100 % 1016,2 hPa 0,0 l/m 4,7 km/h (1 Bft) S-SW 202 5 min 0,0 UV-I 12,2 C 24,2 C 11,7 km/h (2 Bft)
16.06.2013 11:45 20,1 C 22,7 C 19,3 C 23,8 C 23,8 C 3,7 C 59 % 68 % 97 % 1016,2 hPa 0,0 l/m 5,3 km/h (1 Bft) S-SW 202 5 min 0,0 UV-I 11,8 C 23,8 C 7,2 km/h (2 Bft)
16.06.2013 11:50 20,0 C 22,7 C 19,2 C 23,4 C 23,4 C 3,4 C 59 % 69 % 89 % 1016,2 hPa 0,0 l/m 6,6 km/h (2 Bft) SO 135 5 min 0,0 UV-I 11,7 C 23,4 C 3,7 km/h (1 Bft)
16.06.2013 11:55 20,1 C 22,7 C 19,3 C 23,5 C 23,5 C 3,4 C 60 % 69 % 89 % 1016,3 hPa 0,0 l/m 5,3 km/h (1 Bft) SW 225 5 min 0,0 UV-I 12,1 C 23,5 C 8,5 km/h (2 Bft)
16.06.2013 12:00 20,3 C 22,7 C 19,5 C 23,7 C 23,7 C 3,4 C 62 % 68 % 89 % 1016,3 hPa 0,0 l/m 3,5 km/h (1 Bft) SO 135 5 min 0,0 UV-I 12,8 C 23,7 C 0,0 km/h (0 Bft)
16.06.2013 12:05 20,2 C 22,7 C 19,5 C 24,0 C 24,0 C 3,8 C 62 % 68 % 100 % 1016,3 hPa 0,0 l/m 3,2 km/h (1 Bft) NW 315 5 min 0,0 UV-I 12,7 C 24,0 C 2,7 km/h (1 Bft)
16.06.2013 12:10 20,9 C 22,6 C 19,9 C 25,3 C 25,3 C 4,4 C 61 % 68 % 100 % 1016,3 hPa 0,0 l/m 2,7 km/h (1 Bft) S-SW 202 5 min 0,0 UV-I 13,1 C 25,3 C 11,3 km/h (2 Bft)
16.06.2013 12:15 20,9 C 22,6 C 19,9 C 25,1 C 25,1 C 4,2 C 60 % 69 % 100 % 1015,9 hPa 0,0 l/m 4,3 km/h (1 Bft) S-SW 202 5 min 0,0 UV-I 12,8 C 25,1 C 4,8 km/h (1 Bft)
16.06.2013 12:20 20,7 C 22,7 C 19,7 C 24,5 C 24,5 C 3,8 C 60 % 68 % 100 % 1015,9 hPa 0,0 l/m 5,1 km/h (1 Bft) SW 225 5 min 0,0 UV-I 12,7 C 24,5 C 7,1 km/h (2 Bft)
16.06.2013 12:25 20,7 C 22,6 C 19,6 C 23,9 C 23,9 C 3,2 C 59 % 69 % 84 % 1015,9 hPa 0,0 l/m 4,7 km/h (1 Bft) SW 225 0 min 0,0 UV-I 12,4 C 23,9 C 6,1 km/h (2 Bft)
16.06.2013 12:30 20,4 C 22,8 C 19,5 C 23,2 C 23,2 C 2,8 C 59 % 69 % 74 % 1015,9 hPa 0,0 l/m 4,7 km/h (1 Bft) W 270 0 min 0,0 UV-I 12,1 C 23,2 C 7,6 km/h (2 Bft)
16.06.2013 12:35 20,4 C 22,8 C 19,5 C 23,1 C 23,1 C 2,7 C 58 % 69 % 71 % 1016,2 hPa 0,0 l/m 5,5 km/h (1 Bft) SW 225 0 min 0,0 UV-I 11,9 C 23,1 C 9,2 km/h (2 Bft)
16.06.2013 12:41 20,2 C 22,8 C 19,7 C 22,9 C 22,9 C 2,7 C 58 % 67 % 71 % 1016,2 hPa 0,0 l/m 7,4 km/h (2 Bft) N 0 0 min 0,0 UV-I 11,7 C 22,9 C 10,6 km/h (2 Bft)
16.06.2013 13:00 21,1 C 22,7 C 20,2 C 25,3 C 25,3 C 4,2 C 59 % 66 % 100 % 1016,2 hPa 0,0 l/m 4,3 km/h (1 Bft) W-SW 247 19 min 0,0 UV-I 12,8 C 25,3 C 19,8 km/h (3 Bft)
16.06.2013 13:05 20,9 C 22,7 C 20,2 C 24,9 C 24,9 C 4,0 C 58 % 65 % 100 % 1016,2 hPa 0,0 l/m 5,0 km/h (1 Bft) S 180 5 min 0,0 UV-I 12,3 C 24,9 C 4,5 km/h (1 Bft)
16.06.2013 13:10 20,7 C 22,7 C 20,1 C 24,0 C 24,0 C 3,3 C 58 % 66 % 87 % 1016,2 hPa 0,0 l/m 6,8 km/h (2 Bft) SW 225 5 min 0,0 UV-I 12,1 C 24,0 C 7,1 km/h (2 Bft)
16.06.2013 13:15 20,6 C 22,7 C 20,1 C 23,7 C 23,7 C 3,1 C 58 % 65 % 82 % 1016,0 hPa 0,0 l/m 6,9 km/h (2 Bft) W 270 0 min 0,0 UV-I 12,0 C 23,7 C 10,8 km/h (2 Bft)
16.06.2013 13:20 20,4 C 22,7 C 20,0 C 23,4 C 23,4 C 3,0 C 58 % 65 % 79 % 1016,0 hPa 0,0 l/m 7,6 km/h (2 Bft) S-SW 202 0 min 0,0 UV-I 11,9 C 23,4 C 6,1 km/h (2 Bft)
16.06.2013 13:25 20,4 C 22,8 C 20,0 C 23,5 C 23,5 C 3,1 C 59 % 66 % 82 % 1016,0 hPa 0,0 l/m 7,1 km/h (2 Bft) S 180 0 min 0,0 UV-I 12,1 C 23,5 C 8,5 km/h (2 Bft)
16.06.2013 13:30 20,8 C 22,7 C 20,5 C 24,8 C 24,8 C 4,0 C 58 % 65 % 100 % 1016,0 hPa 0,0 l/m 5,6 km/h (1 Bft) SW 225 5 min 0,0 UV-I 12,2 C 24,8 C 15,3 km/h (3 Bft)
16.06.2013 13:35 20,9 C 22,8 C 20,7 C 25,0 C 25,0 C 4,1 C 59 % 66 % 100 % 1016,2 hPa 0,0 l/m 6,3 km/h (2 Bft) W 270 5 min 0,0 UV-I 12,6 C 25,0 C 10,9 km/h (2 Bft)
16.06.2013 13:40 21,3 C 22,8 C 21,1 C 26,0 C 26,0 C 4,7 C 59 % 66 % 100 % 1016,2 hPa 0,0 l/m 6,4 km/h (2 Bft) S-SO 157 5 min 0,0 UV-I 13,0 C 26,0 C 4,7 km/h (1 Bft)
16.06.2013 13:45 21,7 C 22,8 C 21,1 C 26,4 C 26,4 C 4,7 C 58 % 66 % 100 % 1016,2 hPa 0,0 l/m 5,8 km/h (2 Bft) W 270 5 min 0,0 UV-I 13,1 C 26,4 C 6,4 km/h (2 Bft)
16.06.2013 13:50 21,8 C 22,8 C 21,1 C 26,2 C 26,2 C 4,4 C 57 % 65 % 100 % 1016,2 hPa 0,0 l/m 6,0 km/h (2 Bft) W-SW 247 5 min 0,0 UV-I 12,9 C 26,2 C 5,0 km/h (1 Bft)
16.06.2013 13:55 21,7 C 22,8 C 21,3 C 26,1 C 26,1 C 4,4 C 56 % 62 % 100 % 1015,8 hPa 0,0 l/m 6,8 km/h (2 Bft) SO 135 5 min 0,0 UV-I 12,5 C 26,1 C 10,1 km/h (2 Bft)
16.06.2013 14:00 21,7 C 22,8 C 21,3 C 26,2 C 26,2 C 4,5 C 57 % 62 % 100 % 1015,8 hPa 0,0 l/m 6,8 km/h (2 Bft) W 270 5 min 0,0 UV-I 12,8 C 26,2 C 12,4 km/h (3 Bft)
16.06.2013 14:05 21,7 C 22,8 C 21,3 C 25,7 C 25,7 C 4,0 C 56 % 63 % 100 % 1015,8 hPa 0,0 l/m 5,8 km/h (2 Bft) S 180 5 min 0,0 UV-I 12,5 C 25,7 C 7,1 km/h (2 Bft)
16.06.2013 14:10 21,9 C 22,8 C 21,5 C 25,9 C 25,9 C 4,0 C 57 % 65 % 100 % 1015,8 hPa 0,0 l/m 5,8 km/h (2 Bft) W-SW 247 5 min 0,0 UV-I 13,0 C 25,9 C 4,8 km/h (1 Bft)
16.06.2013 14:15 22,1 C 22,8 C 21,5 C 26,3 C 26,3 C 4,2 C 56 % 66 % 100 % 1015,8 hPa 0,0 l/m 6,0 km/h (2 Bft) SW 225 5 min 0,0 UV-I 12,9 C 26,3 C 10,0 km/h (2 Bft)
16.06.2013 14:20 22,0 C 22,8 C 21,2 C 25,9 C 25,9 C 3,9 C 54 % 63 % 100 % 1015,8 hPa 0,0 l/m 6,3 km/h (2 Bft) W-SW 247 5 min 0,0 UV-I 12,3 C 25,9 C 10,5 km/h (2 Bft)
16.06.2013 14:25 21,9 C 22,8 C 21,4 C 25,5 C 25,5 C 3,6 C 55 % 63 % 95 % 1015,8 hPa 0,0 l/m 6,6 km/h (2 Bft) SW 225 5 min 0,0 UV-I 12,4 C 25,5 C 12,9 km/h (3 Bft)
16.06.2013 14:30 22,2 C 22,9 C 21,6 C 25,9 C 25,9 C 3,7 C 54 % 60 % 97 % 1015,8 hPa 0,0 l/m 7,2 km/h (2 Bft) SW 225 5 min 0,0 UV-I 12,4 C 25,9 C 10,1 km/h (2 Bft)
16.06.2013 14:35 22,3 C 22,9 C 21,3 C 25,4 C 25,4 C 3,1 C 54 % 63 % 82 % 1015,4 hPa 0,0 l/m 7,1 km/h (2 Bft) SW 225 0 min 0,0 UV-I 12,5 C 25,4 C 9,2 km/h (2 Bft)
16.06.2013 14:40 22,3 C 22,9 C 21,3 C 25,3 C 25,3 C 3,0 C 54 % 65 % 79 % 1015,4 hPa 0,0 l/m 6,3 km/h (2 Bft) W-SW 247 0 min 0,0 UV-I 12,5 C 25,3 C 7,4 km/h (2 Bft)
16.06.2013 14:45 22,3 C 22,9 C 21,3 C 25,2 C 25,2 C 2,9 C 53 % 63 % 76 % 1015,4 hPa 0,0 l/m 6,8 km/h (2 Bft) W-SW 247 0 min 0,0 UV-I 12,2 C 25,2 C 2,6 km/h (1 Bft)
16.06.2013 14:50 22,4 C 22,9 C 21,4 C 25,7 C 25,7 C 3,3 C 54 % 60 % 87 % 1015,4 hPa 0,0 l/m 6,1 km/h (2 Bft) S 180 5 min 0,0 UV-I 12,6 C 25,7 C 5,8 km/h (2 Bft)
16.06.2013 14:55 22,7 C 22,9 C 21,5 C 26,1 C 26,1 C 3,4 C 53 % 63 % 89 % 1015,1 hPa 0,0 l/m 5,3 km/h (1 Bft) W-SW 247 5 min 0,0 UV-I 12,6 C 26,1 C 5,6 km/h (1 Bft)
16.06.2013 15:00 22,9 C 22,9 C 21,6 C 26,4 C 26,4 C 3,5 C 53 % 64 % 92 % 1015,1 hPa 0,0 l/m 5,3 km/h (1 Bft) W-SW 247 5 min 0,0 UV-I 12,8 C 26,4 C 7,7 km/h (2 Bft)
16.06.2013 15:05 23,3 C 22,9 C 21,6 C 26,5 C 26,5 C 3,2 C 53 % 65 % 84 % 1015,1 hPa 0,0 l/m 5,3 km/h (1 Bft) W 270 0 min 0,0 UV-I 13,2 C 26,5 C 4,0 km/h (1 Bft)
16.06.2013 15:10 23,3 C 22,9 C 21,7 C 26,8 C 26,8 C 3,5 C 51 % 64 % 92 % 1015,1 hPa 0,0 l/m 6,0 km/h (2 Bft) SW 225 5 min 0,0 UV-I 12,6 C 26,8 C 6,4 km/h (2 Bft)
16.06.2013 15:15 23,3 C 23,0 C 21,9 C 26,8 C 26,8 C 3,5 C 52 % 63 % 92 % 1015,4 hPa 0,0 l/m 5,8 km/h (2 Bft) S 180 5 min 0,0 UV-I 12,9 C 26,8 C 8,0 km/h (2 Bft)
16.06.2013 15:20 23,4 C 23,0 C 21,9 C 26,8 C 26,8 C 3,4 C 51 % 59 % 89 % 1015,4 hPa 0,0 l/m 5,8 km/h (2 Bft) S-SO 157 5 min 0,0 UV-I 12,7 C 26,8 C 4,2 km/h (1 Bft)
16.06.2013 15:25 23,6 C 23,0 C 22,1 C 27,0 C 27,0 C 3,4 C 51 % 62 % 89 % 1015,4 hPa 0,0 l/m 5,5 km/h (1 Bft) SW 225 5 min 0,0 UV-I 12,9 C 27,0 C 2,9 km/h (1 Bft)
16.06.2013 15:30 23,6 C 23,0 C 22,0 C 27,4 C 27,4 C 3,8 C 53 % 60 % 100 % 1015,4 hPa 0,0 l/m 4,2 km/h (1 Bft) W 270 5 min 0,0 UV-I 13,4 C 27,4 C 3,2 km/h (1 Bft)
16.06.2013 15:35 23,8 C 23,0 C 22,0 C 27,8 C 27,8 C 4,0 C 53 % 62 % 100 % 1015,4 hPa 0,0 l/m 3,5 km/h (1 Bft) S-SW 202 5 min 0,0 UV-I 13,6 C 27,8 C 3,4 km/h (1 Bft)
16.06.2013 15:40 23,9 C 23,0 C 22,1 C 27,9 C 27,9 C 4,0 C 51 % 58 % 100 % 1015,4 hPa 0,0 l/m 3,5 km/h (1 Bft) SO 135 5 min 0,0 UV-I 13,1 C 27,9 C 2,1 km/h (1 Bft)
16.06.2013 15:45 24,0 C 23,1 C 22,0 C 28,0 C 28,0 C 4,0 C 50 % 62 % 100 % 1015,4 hPa 0,0 l/m 4,0 km/h (1 Bft) SO 135 5 min 0,0 UV-I 12,9 C 28,0 C 1,9 km/h (1 Bft)
16.06.2013 15:50 24,3 C 23,1 C 22,1 C 28,2 C 28,2 C 3,9 C 49 % 60 % 100 % 1015,4 hPa 0,0 l/m 3,7 km/h (1 Bft) SW 225 5 min 0,0 UV-I 12,9 C 28,2 C 11,6 km/h (2 Bft)
16.06.2013 15:55 24,4 C 23,1 C 22,2 C 28,0 C 28,0 C 3,6 C 48 % 59 % 95 % 1014,9 hPa 0,0 l/m 4,7 km/h (1 Bft) W-SW 247 5 min 0,0 UV-I 12,7 C 28,0 C 6,4 km/h (2 Bft)
16.06.2013 16:00 24,4 C 23,1 C 22,5 C 27,8 C 27,8 C 3,4 C 47 % 60 % 89 % 1014,9 hPa 0,0 l/m 6,3 km/h (2 Bft) W-SW 247 5 min 0,0 UV-I 12,3 C 27,8 C 3,2 km/h (1 Bft)
16.06.2013 16:05 24,1 C 23,1 C 22,5 C 27,9 C 27,9 C 3,8 C 48 % 58 % 100 % 1014,9 hPa 0,0 l/m 5,1 km/h (1 Bft) S-SO 157 5 min 0,0 UV-I 12,4 C 27,9 C 2,6 km/h (1 Bft)
16.06.2013 16:10 24,2 C 23,2 C 22,6 C 28,4 C 28,4 C 4,2 C 51 % 61 % 100 % 1014,9 hPa 0,0 l/m 4,2 km/h (1 Bft) SW 225 5 min 0,0 UV-I 13,4 C 28,4 C 11,7 km/h (2 Bft)
16.06.2013 16:15 24,1 C 23,2 C 22,6 C 28,2 C 28,2 C 4,1 C 49 % 62 % 100 % 1014,6 hPa 0,0 l/m 4,8 km/h (1 Bft) W 270 5 min 0,0 UV-I 12,7 C 28,2 C 5,6 km/h (1 Bft)
16.06.2013 16:20 24,0 C 23,2 C 22,4 C 27,9 C 27,9 C 3,9 C 50 % 61 % 100 % 1014,6 hPa 0,0 l/m 4,8 km/h (1 Bft) W 270 5 min 0,0 UV-I 12,9 C 27,9 C 3,7 km/h (1 Bft)
16.06.2013 16:25 24,0 C 23,2 C 22,4 C 27,9 C 27,9 C 3,9 C 50 % 61 % 100 % 1014,6 hPa 0,0 l/m 4,8 km/h (1 Bft) W-SW 247 5 min 0,0 UV-I 12,9 C 27,9 C 6,3 km/h (2 Bft)
16.06.2013 16:30 23,9 C 23,2 C 22,3 C 27,8 C 27,8 C 3,9 C 51 % 62 % 100 % 1014,6 hPa 0,0 l/m 4,5 km/h (1 Bft) W 270 5 min 0,0 UV-I 13,1 C 27,8 C 3,1 km/h (1 Bft)
16.06.2013 16:35 24,1 C 23,2 C 22,3 C 28,1 C 28,1 C 4,0 C 52 % 61 % 100 % 1015,5 hPa 0,0 l/m 3,1 km/h (1 Bft) S 180 5 min 0,0 UV-I 13,6 C 28,1 C 5,1 km/h (1 Bft)
16.06.2013 16:40 23,9 C 23,2 C 22,0 C 27,6 C 27,6 C 3,7 C 51 % 61 % 97 % 1015,5 hPa 0,0 l/m 2,4 km/h (1 Bft) NW 315 5 min 0,0 UV-I 13,1 C 27,6 C 2,1 km/h (1 Bft)
16.06.2013 16:45 23,8 C 23,3 C 22,0 C 27,4 C 27,4 C 3,6 C 52 % 62 % 95 % 1015,5 hPa 0,0 l/m 2,6 km/h (1 Bft) S-SW 202 5 min 0,0 UV-I 13,3 C 27,4 C 0,0 km/h (0 Bft)
16.06.2013 16:50 24,0 C 23,3 C 22,0 C 28,4 C 28,4 C 4,4 C 50 % 59 % 100 % 1015,5 hPa 0,0 l/m 2,1 km/h (1 Bft) O-NO 67 5 min 0,0 UV-I 12,9 C 28,4 C 1,9 km/h (1 Bft)
16.06.2013 16:55 24,1 C 23,3 C 22,0 C 29,0 C 29,0 C 4,9 C 50 % 60 % 100 % 1014,8 hPa 0,0 l/m 1,3 km/h (1 Bft) W-SW 247 5 min 0,0 UV-I 13,0 C 29,0 C 5,0 km/h (1 Bft)
16.06.2013 17:00 24,3 C 23,3 C 22,2 C 29,2 C 29,2 C 4,9 C 52 % 63 % 100 % 1014,8 hPa 0,0 l/m 2,4 km/h (1 Bft) NW 315 5 min 0,0 UV-I 13,8 C 29,2 C 0,0 km/h (0 Bft)
16.06.2013 17:05 24,4 C 23,3 C 22,0 C 28,9 C 28,9 C 4,5 C 51 % 61 % 100 % 1014,8 hPa 0,0 l/m 3,1 km/h (1 Bft) N-NW 337 5 min 0,0 UV-I 13,6 C 28,9 C 4,3 km/h (1 Bft)
16.06.2013 17:10 23,9 C 23,3 C 21,6 C 26,9 C 26,9 C 3,0 C 53 % 62 % 79 % 1014,8 hPa 0,0 l/m 1,8 km/h (1 Bft) O-NO 67 0 min 0,0 UV-I 13,7 C 26,9 C 0,0 km/h (0 Bft)
16.06.2013 17:15 23,4 C 23,3 C 21,7 C 26,2 C 26,2 C 2,8 C 53 % 61 % 74 % 1014,6 hPa 0,0 l/m 1,9 km/h (1 Bft) W-SW 247 0 min 0,0 UV-I 13,3 C 26,2 C 1,8 km/h (1 Bft)
16.06.2013 17:20 23,2 C 23,4 C 21,8 C 26,3 C 26,3 C 3,1 C 54 % 62 % 82 % 1014,6 hPa 0,0 l/m 2,6 km/h (1 Bft) N-NW 337 0 min 0,0 UV-I 13,4 C 26,3 C 5,1 km/h (1 Bft)
16.06.2013 17:25 23,2 C 23,4 C 21,7 C 26,4 C 26,4 C 3,2 C 55 % 63 % 84 % 1014,6 hPa 0,0 l/m 2,6 km/h (1 Bft) S-SW 202 0 min 0,0 UV-I 13,6 C 26,4 C 2,3 km/h (1 Bft)
16.06.2013 17:30 23,1 C 23,4 C 21,8 C 26,8 C 26,8 C 3,7 C 55 % 61 % 97 % 1014,6 hPa 0,0 l/m 2,4 km/h (1 Bft) O-SO 112 5 min 0,0 UV-I 13,6 C 26,8 C 1,8 km/h (1 Bft)
16.06.2013 17:35 23,1 C 23,4 C 21,9 C 27,9 C 27,9 C 4,8 C 55 % 62 % 100 % 1014,7 hPa 0,0 l/m 2,1 km/h (1 Bft) NO 45 5 min 0,0 UV-I 13,6 C 27,9 C 5,1 km/h (1 Bft)
16.06.2013 17:40 23,1 C 23,4 C 21,7 C 28,0 C 28,0 C 4,9 C 54 % 61 % 100 % 1014,7 hPa 0,0 l/m 2,9 km/h (1 Bft) NW 315 5 min 0,0 UV-I 13,3 C 28,0 C 5,5 km/h (1 Bft)
16.06.2013 17:45 23,0 C 23,4 C 21,7 C 27,8 C 27,8 C 4,8 C 54 % 61 % 100 % 1014,7 hPa 0,0 l/m 3,7 km/h (1 Bft) NW 315 5 min 0,0 UV-I 13,2 C 27,8 C 3,1 km/h (1 Bft)
16.06.2013 17:50 22,9 C 23,4 C 21,4 C 27,3 C 27,3 C 4,4 C 55 % 63 % 100 % 1014,7 hPa 0,0 l/m 3,1 km/h (1 Bft) SW 225 5 min 0,0 UV-I 13,4 C 27,3 C 3,2 km/h (1 Bft)
16.06.2013 17:55 22,7 C 23,4 C 21,2 C 26,6 C 26,6 C 3,9 C 55 % 64 % 100 % 1014,8 hPa 0,0 l/m 2,4 km/h (1 Bft) W 270 5 min 0,0 UV-I 13,2 C 26,6 C 6,1 km/h (2 Bft)
16.06.2013 18:00 22,4 C 23,4 C 21,2 C 25,3 C 25,3 C 2,9 C 56 % 62 % 76 % 1014,8 hPa 0,0 l/m 2,9 km/h (1 Bft) NW 315 0 min 0,0 UV-I 13,2 C 25,3 C 5,3 km/h (1 Bft)
16.06.2013 18:05 22,3 C 23,4 C 21,2 C 25,5 C 25,5 C 3,2 C 56 % 63 % 84 % 1014,8 hPa 0,0 l/m 3,1 km/h (1 Bft) W-NW 292 0 min 0,0 UV-I 13,1 C 25,5 C 2,4 km/h (1 Bft)
16.06.2013 18:10 22,5 C 23,4 C 21,3 C 26,8 C 26,8 C 4,3 C 56 % 62 % 100 % 1014,8 hPa 0,0 l/m 2,7 km/h (1 Bft) W 270 5 min 0,0 UV-I 13,3 C 26,8 C 3,2 km/h (1 Bft)
16.06.2013 18:15 22,6 C 23,5 C 21,3 C 27,5 C 27,5 C 4,9 C 56 % 62 % 100 % 1014,9 hPa 0,0 l/m 2,4 km/h (1 Bft) N-NW 337 5 min 0,0 UV-I 13,4 C 27,5 C 3,1 km/h (1 Bft)
16.06.2013 18:20 22,7 C 23,5 C 21,3 C 27,7 C 27,7 C 5,0 C 56 % 63 % 100 % 1014,9 hPa 0,0 l/m 1,8 km/h (1 Bft) N-NW 337 5 min 0,0 UV-I 13,5 C 27,7 C 4,5 km/h (1 Bft)
16.06.2013 18:25 22,7 C 23,5 C 21,3 C 27,4 C 27,4 C 4,7 C 55 % 62 % 100 % 1014,9 hPa 0,0 l/m 2,6 km/h (1 Bft) N 360 5 min 0,0 UV-I 13,2 C 27,4 C 5,8 km/h (2 Bft)
16.06.2013 18:30 22,5 C 23,5 C 21,2 C 26,4 C 26,4 C 3,9 C 56 % 62 % 100 % 1014,9 hPa 0,0 l/m 2,4 km/h (1 Bft) O-NO 67 5 min 0,0 UV-I 13,3 C 26,4 C 0,0 km/h (0 Bft)
16.06.2013 18:35 22,3 C 23,5 C 21,0 C 25,7 C 25,7 C 3,4 C 55 % 62 % 89 % 1015,1 hPa 0,0 l/m 2,3 km/h (1 Bft) N-NW 337 5 min 0,0 UV-I 12,8 C 25,7 C 4,2 km/h (1 Bft)
16.06.2013 18:41 22,0 C 23,5 C 20,8 C 24,4 C 24,4 C 2,4 C 56 % 64 % 63 % 1015,1 hPa 0,0 l/m 2,4 km/h (1 Bft) N 0 0 min 0,0 UV-I 12,8 C 24,4 C 2,1 km/h (1 Bft)
16.06.2013 19:00 22,2 C 23,5 C 21,2 C 25,8 C 25,8 C 3,6 C 56 % 62 % 95 % 1015,1 hPa 0,0 l/m 2,4 km/h (1 Bft) NW 315 19 min 0,0 UV-I 13,0 C 25,8 C 4,8 km/h (1 Bft)
16.06.2013 19:05 22,3 C 23,5 C 21,1 C 26,3 C 26,3 C 4,0 C 56 % 62 % 100 % 1015,1 hPa 0,0 l/m 2,7 km/h (1 Bft) O-NO 67 5 min 0,0 UV-I 13,1 C 26,3 C 0,0 km/h (0 Bft)
16.06.2013 19:10 22,3 C 23,5 C 21,1 C 26,8 C 26,8 C 4,5 C 57 % 64 % 100 % 1015,1 hPa 0,0 l/m 1,8 km/h (1 Bft) S-SO 157 5 min 0,0 UV-I 13,4 C 26,8 C 1,6 km/h (1 Bft)
16.06.2013 19:15 22,4 C 23,5 C 21,0 C 27,1 C 27,1 C 4,7 C 56 % 62 % 100 % 1015,2 hPa 0,0 l/m 1,6 km/h (1 Bft) W 270 5 min 0,0 UV-I 13,2 C 27,1 C 2,6 km/h (1 Bft)
16.06.2013 19:20 22,5 C 23,5 C 21,1 C 27,0 C 27,0 C 4,5 C 55 % 62 % 100 % 1015,2 hPa 0,0 l/m 1,9 km/h (1 Bft) N-NW 337 5 min 0,0 UV-I 13,0 C 27,0 C 2,1 km/h (1 Bft)
16.06.2013 19:25 22,5 C 23,5 C 21,0 C 26,7 C 26,7 C 4,2 C 55 % 62 % 100 % 1015,2 hPa 0,0 l/m 2,1 km/h (1 Bft) N-NW 337 5 min 0,0 UV-I 13,0 C 26,7 C 0,0 km/h (0 Bft)
16.06.2013 19:30 22,5 C 23,5 C 21,0 C 26,6 C 26,6 C 4,1 C 54 % 62 % 100 % 1015,2 hPa 0,0 l/m 2,1 km/h (1 Bft) W-SW 247 5 min 0,0 UV-I 12,7 C 26,6 C 2,7 km/h (1 Bft)
16.06.2013 19:35 22,6 C 23,5 C 20,9 C 26,6 C 26,6 C 4,0 C 55 % 63 % 100 % 1015,0 hPa 0,0 l/m 1,4 km/h (1 Bft) W-SW 247 5 min 0,0 UV-I 13,1 C 26,6 C 3,1 km/h (1 Bft)
16.06.2013 19:40 22,8 C 23,6 C 20,9 C 26,5 C 26,5 C 3,7 C 54 % 63 % 97 % 1015,0 hPa 0,0 l/m 1,4 km/h (1 Bft) N-NO 22 5 min 0,0 UV-I 13,0 C 26,5 C 2,3 km/h (1 Bft)
16.06.2013 19:45 22,7 C 23,6 C 20,8 C 26,0 C 26,0 C 3,3 C 54 % 62 % 87 % 1015,0 hPa 0,0 l/m 1,9 km/h (1 Bft) W-NW 292 5 min 0,0 UV-I 12,9 C 26,0 C 0,0 km/h (0 Bft)
16.06.2013 19:50 22,5 C 23,6 C 20,7 C 25,8 C 25,8 C 3,3 C 54 % 62 % 87 % 1015,0 hPa 0,0 l/m 1,9 km/h (1 Bft) N-NW 337 5 min 0,0 UV-I 12,7 C 25,8 C 2,3 km/h (1 Bft)
16.06.2013 19:55 22,1 C 23,6 C 20,7 C 25,5 C 25,5 C 3,4 C 53 % 61 % 89 % 1015,2 hPa 0,0 l/m 1,6 km/h (1 Bft) N-NW 337 5 min 0,0 UV-I 12,1 C 25,5 C 6,9 km/h (2 Bft)
16.06.2013 20:00 21,7 C 23,6 C 20,5 C 24,9 C 24,9 C 3,2 C 53 % 60 % 84 % 1015,2 hPa 0,0 l/m 2,3 km/h (1 Bft) W-NW 292 5 min 0,0 UV-I 11,7 C 24,9 C 1,6 km/h (1 Bft)
16.06.2013 20:05 21,4 C 23,6 C 20,5 C 24,7 C 24,7 C 3,3 C 55 % 62 % 87 % 1015,2 hPa 0,0 l/m 1,8 km/h (1 Bft) N-NO 22 5 min 0,0 UV-I 12,0 C 24,7 C 0,0 km/h (0 Bft)
16.06.2013 20:10 21,2 C 23,6 C 20,1 C 23,5 C 23,5 C 2,3 C 54 % 62 % 61 % 1015,2 hPa 0,0 l/m 0,8 km/h (0 Bft) NW 315 5 min 0,0 UV-I 11,5 C 23,5 C 3,5 km/h (1 Bft)
16.06.2013 20:15 21,0 C 23,6 C 20,1 C 22,3 C 22,3 C 1,3 C 55 % 63 % 34 % 1015,2 hPa 0,0 l/m 0,8 km/h (0 Bft) N-NO 22 0 min 0,0 UV-I 11,6 C 22,3 C 0,0 km/h (0 Bft)
16.06.2013 20:20 20,8 C 23,6 C 19,7 C 21,2 C 21,2 C 0,4 C 56 % 63 % 11 % 1015,2 hPa 0,0 l/m 0,8 km/h (0 Bft) N-NW 337 0 min 0,0 UV-I 11,7 C 21,2 C 2,3 km/h (1 Bft)
16.06.2013 20:25 20,6 C 23,7 C 19,6 C 20,6 C 20,5 C 0,0 C 56 % 63 % 0 % 1015,2 hPa 0,0 l/m 0,8 km/h (0 Bft) N 360 0 min 0,0 UV-I 11,5 C 20,5 C 1,6 km/h (1 Bft)
16.06.2013 20:30 20,5 C 23,7 C 19,4 C 20,2 C 19,6 C 0,0 C 57 % 63 % 0 % 1015,2 hPa 0,0 l/m 0,6 km/h (0 Bft) N-NO 22 0 min 0,0 UV-I 11,7 C 19,6 C 0,0 km/h (0 Bft)
16.06.2013 20:35 20,2 C 23,7 C 19,4 C 19,9 C 19,3 C 0,0 C 57 % 64 % 0 % 1015,3 hPa 0,0 l/m 0,0 km/h (0 Bft) NO 45 0 min 0,0 UV-I 11,4 C 19,3 C 0,0 km/h (0 Bft)
16.06.2013 20:40 20,0 C 23,7 C 19,1 C 19,7 C 19,0 C 0,0 C 58 % 66 % 0 % 1015,3 hPa 0,0 l/m 0,2 km/h (0 Bft) NO 45 0 min 0,0 UV-I 11,5 C 19,0 C 0,0 km/h (0 Bft)
16.06.2013 20:45 19,8 C 23,6 C 18,8 C 19,4 C 18,7 C 0,0 C 59 % 67 % 0 % 1015,3 hPa 0,0 l/m 0,5 km/h (0 Bft) N-NO 22 0 min 0,0 UV-I 11,6 C 18,7 C 0,0 km/h (0 Bft)
16.06.2013 20:50 19,5 C 23,7 C 18,3 C 19,1 C 18,3 C 0,0 C 60 % 69 % 0 % 1015,3 hPa 0,0 l/m 0,5 km/h (0 Bft) NO 45 0 min 0,0 UV-I 11,5 C 18,3 C 0,0 km/h (0 Bft)
16.06.2013 20:55 19,3 C 23,7 C 18,1 C 18,9 C 18,0 C 0,0 C 61 % 68 % 0 % 1015,3 hPa 0,0 l/m 0,3 km/h (0 Bft) O-NO 67 0 min 0,0 UV-I 11,6 C 18,0 C 0,0 km/h (0 Bft)
16.06.2013 21:00 18,8 C 23,6 C 17,9 C 18,4 C 17,7 C 0,0 C 61 % 69 % 0 % 1015,3 hPa 0,0 l/m 0,3 km/h (0 Bft) O 90 0 min 0,0 UV-I 11,1 C 17,7 C 0,0 km/h (0 Bft)
16.06.2013 21:05 18,7 C 23,6 C 17,7 C 18,3 C 17,5 C 0,0 C 61 % 69 % 0 % 1015,3 hPa 0,0 l/m 0,2 km/h (0 Bft) O-NO 67 0 min 0,0 UV-I 11,0 C 17,5 C 0,0 km/h (0 Bft)
16.06.2013 21:10 18,5 C 23,6 C 17,5 C 18,0 C 17,1 C 0,0 C 62 % 70 % 0 % 1015,3 hPa 0,0 l/m 0,3 km/h (0 Bft) O-NO 67 0 min 0,0 UV-I 11,1 C 17,1 C 1,9 km/h (1 Bft)
16.06.2013 21:15 18,1 C 23,6 C 17,3 C 17,7 C 16,9 C 0,0 C 63 % 71 % 0 % 1015,2 hPa 0,0 l/m 1,0 km/h (0 Bft) O-NO 67 0 min 0,0 UV-I 10,9 C 16,9 C 2,7 km/h (1 Bft)
16.06.2013 21:20 17,9 C 23,6 C 17,1 C 17,5 C 16,8 C 0,0 C 64 % 71 % 0 % 1015,2 hPa 0,0 l/m 1,9 km/h (1 Bft) O-NO 67 0 min 0,0 UV-I 11,0 C 16,8 C 1,8 km/h (1 Bft)
16.06.2013 21:25 17,7 C 23,6 C 16,8 C 17,4 C 16,7 C 0,0 C 65 % 72 % 0 % 1015,2 hPa 0,0 l/m 1,4 km/h (1 Bft) O-NO 67 0 min 0,0 UV-I 11,0 C 16,7 C 0,0 km/h (0 Bft)
16.06.2013 21:30 17,5 C 23,6 C 16,7 C 17,1 C 16,3 C 0,0 C 65 % 73 % 0 % 1015,2 hPa 0,0 l/m 0,3 km/h (0 Bft) O-NO 67 0 min 0,0 UV-I 10,8 C 16,3 C 0,0 km/h (0 Bft)
16.06.2013 21:35 17,5 C 23,6 C 16,5 C 17,0 C 16,1 C 0,0 C 66 % 73 % 0 % 1015,8 hPa 0,0 l/m 0,0 km/h (0 Bft) O 90 0 min 0,0 UV-I 11,1 C 16,1 C 0,0 km/h (0 Bft)
16.06.2013 21:40 17,2 C 23,7 C 16,4 C 16,7 C 15,7 C 0,0 C 66 % 73 % 0 % 1015,8 hPa 0,0 l/m 0,0 km/h (0 Bft) S-SW 202 0 min 0,0 UV-I 10,8 C 15,7 C 0,0 km/h (0 Bft)
16.06.2013 21:45 17,0 C 23,7 C 16,3 C 16,5 C 15,4 C 0,0 C 67 % 74 % 0 % 1015,8 hPa 0,0 l/m 0,0 km/h (0 Bft) S-SW 202 0 min 0,0 UV-I 10,8 C 15,4 C 0,0 km/h (0 Bft)
16.06.2013 21:50 16,8 C 23,7 C 16,2 C 16,2 C 15,0 C 0,0 C 68 % 75 % 0 % 1015,8 hPa 0,0 l/m 0,0 km/h (0 Bft) S-SW 202 0 min 0,0 UV-I 10,9 C 15,0 C 0,0 km/h (0 Bft)
16.06.2013 21:55 16,6 C 23,7 C 16,0 C 16,0 C 14,7 C 0,0 C 69 % 75 % 0 % 1016,1 hPa 0,0 l/m 0,0 km/h (0 Bft) S-SW 202 0 min 0,0 UV-I 10,9 C 14,7 C 0,0 km/h (0 Bft)
16.06.2013 22:00 16,4 C 23,7 C 15,9 C 15,8 C 14,5 C 0,0 C 71 % 76 % 0 % 1016,1 hPa 0,0 l/m 0,0 km/h (0 Bft) S-SW 202 0 min 0,0 UV-I 11,1 C 14,5 C 0,0 km/h (0 Bft)
16.06.2013 22:05 16,3 C 23,8 C 15,9 C 15,7 C 14,4 C 0,0 C 71 % 76 % 0 % 1016,1 hPa 0,0 l/m 0,0 km/h (0 Bft) O 90 0 min 0,0 UV-I 11,0 C 14,4 C 0,0 km/h (0 Bft)
16.06.2013 22:10 15,9 C 23,7 C 15,5 C 15,4 C 14,3 C 0,0 C 72 % 77 % 0 % 1016,1 hPa 0,0 l/m 0,0 km/h (0 Bft) O-NO 67 0 min 0,0 UV-I 10,9 C 14,3 C 0,0 km/h (0 Bft)
16.06.2013 22:15 15,9 C 23,7 C 15,4 C 15,3 C 14,1 C 0,0 C 73 % 77 % 0 % 1016,0 hPa 0,0 l/m 0,0 km/h (0 Bft) W 270 0 min 0,0 UV-I 11,1 C 14,1 C 0,0 km/h (0 Bft)
16.06.2013 22:20 15,7 C 23,8 C 15,3 C 15,1 C 13,9 C 0,0 C 74 % 78 % 0 % 1016,0 hPa 0,0 l/m 0,0 km/h (0 Bft) O-NO 67 0 min 0,0 UV-I 11,1 C 13,9 C 0,0 km/h (0 Bft)
16.06.2013 22:25 15,4 C 23,8 C 15,2 C 14,9 C 13,8 C 0,0 C 75 % 78 % 0 % 1016,0 hPa 0,0 l/m 0,0 km/h (0 Bft) N-NO 22 0 min 0,0 UV-I 11,0 C 13,8 C 0,0 km/h (0 Bft)
16.06.2013 22:30 15,3 C 23,8 C 15,0 C 14,8 C 13,7 C 0,0 C 76 % 78 % 0 % 1016,0 hPa 0,0 l/m 0,0 km/h (0 Bft) N-NO 22 0 min 0,0 UV-I 11,1 C 13,7 C 0,0 km/h (0 Bft)
16.06.2013 22:35 15,2 C 23,8 C 15,1 C 14,6 C 13,5 C 0,0 C 76 % 79 % 0 % 1015,9 hPa 0,0 l/m 0,0 km/h (0 Bft) N-NO 22 0 min 0,0 UV-I 11,0 C 13,5 C 0,0 km/h (0 Bft)
16.06.2013 22:40 14,9 C 23,8 C 14,9 C 14,3 C 13,2 C 0,0 C 77 % 79 % 0 % 1015,9 hPa 0,0 l/m 0,0 km/h (0 Bft) N-NO 22 0 min 0,0 UV-I 10,9 C 13,2 C 0,0 km/h (0 Bft)
16.06.2013 22:45 14,8 C 23,8 C 14,7 C 14,2 C 13,1 C 0,0 C 78 % 79 % 0 % 1015,9 hPa 0,0 l/m 0,0 km/h (0 Bft) W 270 0 min 0,0 UV-I 11,0 C 13,1 C 0,0 km/h (0 Bft)
16.06.2013 22:50 14,7 C 23,8 C 14,4 C 14,1 C 12,9 C 0,0 C 78 % 79 % 0 % 1015,9 hPa 0,0 l/m 0,0 km/h (0 Bft) W-SW 247 0 min 0,0 UV-I 10,9 C 12,9 C 0,0 km/h (0 Bft)
16.06.2013 22:55 14,6 C 23,8 C 14,4 C 14,0 C 12,8 C 0,0 C 79 % 80 % 0 % 1016,0 hPa 0,0 l/m 0,0 km/h (0 Bft) W-SW 247 0 min 0,0 UV-I 11,0 C 12,8 C 0,0 km/h (0 Bft)
16.06.2013 23:00 14,4 C 23,8 C 14,3 C 13,8 C 12,7 C 0,0 C 79 % 80 % 0 % 1016,0 hPa 0,0 l/m 0,0 km/h (0 Bft) W-SW 247 0 min 0,0 UV-I 10,8 C 12,7 C 0,0 km/h (0 Bft)
16.06.2013 23:05 14,3 C 23,8 C 14,3 C 13,7 C 12,6 C 0,0 C 79 % 80 % 0 % 1016,0 hPa 0,0 l/m 0,0 km/h (0 Bft) O-NO 67 0 min 0,0 UV-I 10,7 C 12,6 C 0,0 km/h (0 Bft)
16.06.2013 23:10 14,1 C 23,9 C 14,0 C 13,6 C 12,6 C 0,0 C 80 % 80 % 0 % 1016,0 hPa 0,0 l/m 0,0 km/h (0 Bft) O-NO 67 0 min 0,0 UV-I 10,7 C 12,6 C 0,0 km/h (0 Bft)
16.06.2013 23:15 14,0 C 23,8 C 13,9 C 13,5 C 12,6 C 0,0 C 81 % 80 % 0 % 1016,1 hPa 0,0 l/m 0,0 km/h (0 Bft) O-NO 67 0 min 0,0 UV-I 10,8 C 12,6 C 0,0 km/h (0 Bft)
16.06.2013 23:20 13,9 C 23,8 C 13,8 C 13,4 C 12,4 C 0,0 C 81 % 81 % 0 % 1016,1 hPa 0,0 l/m 0,0 km/h (0 Bft) O-NO 67 0 min 0,0 UV-I 10,7 C 12,4 C 0,0 km/h (0 Bft)
16.06.2013 23:25 13,7 C 23,8 C 13,8 C 13,2 C 12,3 C 0,0 C 81 % 81 % 0 % 1016,1 hPa 0,0 l/m 0,0 km/h (0 Bft) O-NO 67 0 min 0,0 UV-I 10,5 C 12,3 C 0,0 km/h (0 Bft)
16.06.2013 23:30 13,7 C 23,8 C 13,7 C 13,2 C 12,1 C 0,0 C 82 % 81 % 0 % 1016,1 hPa 0,0 l/m 0,0 km/h (0 Bft) SW 225 0 min 0,0 UV-I 10,7 C 12,1 C 0,0 km/h (0 Bft)
16.06.2013 23:35 13,5 C 23,9 C 13,7 C 13,0 C 12,1 C 0,0 C 82 % 81 % 0 % 1016,2 hPa 0,0 l/m 0,0 km/h (0 Bft) O-NO 67 0 min 0,0 UV-I 10,5 C 12,1 C 0,0 km/h (0 Bft)
16.06.2013 23:40 13,3 C 23,8 C 13,6 C 12,8 C 11,9 C 0,0 C 82 % 81 % 0 % 1016,2 hPa 0,0 l/m 0,0 km/h (0 Bft) O-SO 112 0 min 0,0 UV-I 10,3 C 11,9 C 0,0 km/h (0 Bft)
16.06.2013 23:45 13,2 C 23,8 C 13,6 C 12,8 C 11,9 C 0,0 C 82 % 81 % 0 % 1016,2 hPa 0,0 l/m 0,0 km/h (0 Bft) O-SO 112 0 min 0,0 UV-I 10,2 C 11,9 C 0,0 km/h (0 Bft)
16.06.2013 23:50 13,0 C 23,8 C 13,5 C 12,6 C 11,8 C 0,0 C 82 % 81 % 0 % 1016,2 hPa 0,0 l/m 0,0 km/h (0 Bft) W-SW 247 0 min 0,0 UV-I 10,0 C 11,8 C 0,0 km/h (0 Bft)
16.06.2013 23:55 12,9 C 23,8 C 13,4 C 12,5 C 11,8 C 0,0 C 82 % 81 % 0 % 1016,4 hPa 0,0 l/m 0,0 km/h (0 Bft) SW 225 0 min 0,0 UV-I 9,9 C 11,8 C 0,0 km/h (0 Bft)
_ Min-Zeit 05:35 09:25 04:55 05:30 05:15 00:00 16:00 15:40 00:00 00:00 - 00:57 - - - 00:00 05:35 05:15 00:00
Minimum _ 11,5 C 22,6 C 12,2 C 11,4 C 10,9 C 0,0 C 47 % 58 % 0 % 1013,7 hPa - 0,0 km/h (0 Bft) - - - 0,0 UV-I 8,9 C 10,9 C 0,0 km/h (0 Bft)
_ Max-Zeit 15:55 23:10 16:10 17:00 17:00 08:05 05:25 05:25 07:10 09:35 00:00 13:20 - - 07:00 07:10 17:00 17:00 13:00
Maximum _ 24,4 C 23,9 C 22,6 C 29,2 C 29,2 C 7,8 C 84 % 83 % 100 % 1017,0 hPa 0,0 l/m 7,6 km/h
S-SW (2 Bft)
- - 19 min 0,5 UV-I 13,8 C 29,2 C 19,8 km/h
W-SW (3 Bft)
Durchschnitt _ 18,2 C 23,2 C 17,5 C 20,6 C 20,3 C 2,5 C 67 % 72 % 54 % 1015,6 hPa #0,0 l/m 2,4 km/h (1 Bft) W-SW - #11:57 h 0,3 UV-I 11,7 C 20,3 C 3,3 km/h (1 Bft)
2013 www.wetterstation-wechselburg.de